map of NBE home
NBE - Airport
Location
City:  Enfidha, Tunisia
Name:Enfidha-Hammamet International Airport
Old (Alt.):Zine El Abidine Ben Ali International Airport
ICAO:DTNH
IATA:NBE

Details
Type:Airport (Aerodrome, Airfield)
Use:Public/Civil, International (customs port of entry)
Latitude:3604'33"N (36.075833)
Longitude:1026'19"E (10.438611)
Elevation:21 ft (6 m)
Variation:2.61E (WMM2015v2 magnetic declination)
0.12 annual change
Runways:1
Longest:10827 × 197 ft (3300 × 60 m), paved

Time
Time Zone:UTC+1
Local Time:

Weather
METAR:DTNH 041400Z 30019KT 9999 BKN038 BKN055 12/05 Q1011
TAF:DTNH 041100Z 0412/0512 35020KT 9999 SCT026 SCT033 PROB40
TEMPO 0412/0418 -TSRA SCT026CB
BECMG 0418/0420 35025G40KT PROB40
TEMPO 0418/0510 -TSRA SCT026CB

Related Locations
Nearby:
Farthest:CHT: 11787 mi / 18969 km
Waitangi [Tuuta], CIT, NZ

Find:

   beyond  
but within

Other Information
Maps:
NOTAMs:
Links:
Sources:

  
  • flag of Tunisia
  

Airport Diagram

Airport diagram for NBE

Airport diagram PDF

Sectional Chart

Flight Planning
at skyvector.com

Satellite Image

Google Maps Satellite view

 

Copyright © 2004-2019 Karl L. Swartz. All rights reserved.
The Great Circle Mapper name and logo are trademarks of the Great Circle Mapper.
All other trademarks mentioned herein belong to their respective owners.
Please see credits for attibutions and further copyright information.

  Follow gcmap on Facebook Follow gcmap on Twitter GCmap on LinkedIn

hCard Microformat

Geo Microformat